LEMUR-2-TRUTNA (42067 NORAD) Tracking and Keplerian Element Data.

This shows tracking and keplerian element data for the satellite.

Feedback or suggestion? Click here.

Epoch Orbit5945
Epoch Day80.36311009
Epoch Year2018
Argument of Perigee119.5628
Mean Anonmoly240.5607
Mean Motion15.94159689
Decay Rate0.00255691
L11 42067U 98067LC 18080.36311009 .00255691 36347-4 67881-3 0 9997
L22 42067 51.6411 56.5544 0002282 119.5628 240.5607 15.94159689 59458

Live tracking and technical data element details for LEMUR-2-TRUTNA (NORAD 42067). LEMUR-2-TRUTNA can be tracked NOW for your location showing map with azimuth and elevation plus other details from your city location.

Tracking and technical details about the satellite: track the satellite on the map from your city or location and see movement details for azimuth, elevation, latitude, longitude, range, height, and movement on the map or in text.

Es'hailsat 2 (coming in 2018)

IsCatalogInMostPopularTable: catalog: 42067, numindb: 57
Update: records affected: 1

GetName: 42067 LEMUR-2-TRUTNA

Hit Count: updated at: Thu, 22 Mar 2018 13:42:32 GMT